Location: Brno
(49.2000°N, 16.6330°E)
Time: 07:00:49
(UTC+02:00)

Meteor 1-4 Rocket - Visible Passes

Search period start: 30 July 2014 00:00
Search period end: 09 August 2014 00:00
Orbit: 470 x 538 km, 81.2° (Epoch: 29 July)

Date Brightness Start Highest point End Pass type
(mag) Time Alt. Az. Time Alt. Az. Time Alt. Az.
30 Jul 4.6 01:52:56 10° NNE 01:55:52 23° ENE 01:57:33 17° ESE visible
30 Jul 3.7 03:28:25 10° NW 03:31:28 26° W 03:32:17 24° WSW visible
31 Jul 4.8 01:34:31 10° NNE 01:37:07 19° ENE 01:38:39 15° E visible
31 Jul 3.3 03:09:35 10° NNW 03:12:52 34° W 03:13:24 32° WSW visible
01 Aug 5.1 01:16:12 10° NNE 01:18:21 15° ENE 01:19:47 13° E visible
01 Aug 2.9 02:50:47 10° NNW 02:54:14 45° W 02:54:32 44° WSW visible
02 Aug 5.3 00:58:05 10° NE 00:59:33 12° ENE 01:00:57 10° E visible
02 Aug 2.5 02:32:01 10° NNW 02:35:34 61° W 02:35:41 60° WSW visible
03 Aug 2.4 02:13:17 10° NNW 02:16:52 81° W 02:16:52 81° W visible
04 Aug 2.6 01:54:35 10° N 01:58:03 74° NE 01:58:03 74° NE visible
05 Aug 3.1 01:35:55 10° N 01:39:15 55° ENE 01:39:15 55° ENE visible
05 Aug 5.0 03:13:17 10° WNW 03:14:00 11° WNW 03:14:00 11° WNW visible
06 Aug 3.5 01:17:16 10° N 01:20:28 42° ENE 01:20:28 42° ENE visible
06 Aug 4.8 02:53:52 10° NW 02:55:13 14° WNW 02:55:13 14° WNW visible
07 Aug 3.9 00:58:39 10° N 01:01:42 33° ENE 01:01:42 33° ENE visible
07 Aug 4.6 02:34:44 10° NW 02:36:27 18° WNW 02:36:27 18° WNW visible
08 Aug 4.3 00:40:05 10° N 00:42:56 26° ENE 00:42:56 26° ENE visible
08 Aug 4.4 02:15:44 10° NW 02:17:41 21° WNW 02:17:41 21° WNW visible
